World > North America > United States > Florida

Alligator Point, Florida Regional Weather

Lat: 29.90N, Lon: 84.38W
Wx Zone: FLZ015Web Search

Helpful Tip: You can add this page to Bookmarks by pressing the Ctrl key & d key at the same time. Mac users press command & d.

Feedback


°F Click to change Alligator Point hourly weather to Imperial units.Click to change Alligator Point hourly weather to Metric units. °C
Alligator Point Weather Map
UTC Time: 5/15/2021, 20:37
Your Time:

Alligator Point, FL Regional Weather

Expires:202105152100;;167506
ASUS42 KTBW 152017
RWRFL 
FLORIDA REGIONAL WEATHER ROUNDUP
NATIONAL WEATHER SERVICE TAMPA BAY RUSKIN FL
400 PM EDT SAT MAY 15 2021

NOTE: "FAIR" INDICATES FEW OR NO CLOUDS BELOW 12,000 FEET WITH NO
SIGNIFICANT WEATHER AND/OR OBSTRUCTIONS TO VISIBILITY.


FLZ001>010-012>015-112-114-115-152100-
PANHANDLE FLORIDA
  
CITY           SKY/WX    TMP DP  RH WIND       PRES   REMARKS
PENSACOLA      SUNNY     78  54  43 SE10      30.18F                  
PENSACOLA NAS  MOSUNNY   75  53  46 SE13      30.18F                  
MILTON NAS     SUNNY     81  49  32 SE8       30.17F                  
CRESTVIEW      SUNNY     81  48  31 E6        30.19F                  
VALPARAISO     SUNNY     77  52  41 S9        30.17                   
MARY ESTHER    SUNNY     78  53  42 S12       30.16                   
PANAMA CITY    FAIR      81  44  27 NE9       30.16F                  
TYNDALL AFB    SUNNY     80  42  25 E6        30.16F                  
APALACHICOLA   SUNNY     78  47  33 E14G24    30.17F                  

STATION/POSITION SKY/WX   TEMP    WIND        PRES    WAVE   SWELL
                          AIR SEA DIR/SP/G            HT/PER HT/PER
                          (F)     (DEG/KT/KT) (MB)    (FT/S) (FT/S)
30.1N   87.6W              73 75  100/ 14/ 17 1023.1F   4/ 6
29.2N   88.2W              74 77   90/ 16/ 19 1021.8F   3/ 5
28.8N   86.0W              72 75   70/ 17/ 19 1022.3F   5/ 7
PANAMA CITY BEAC           77 74  130/ 11/ 13 1022.4F
TOWER C                    72      50/ 14/ 15 1022.2F
28.5N   84.5W              72 75   60/ 14/ 16 1020.8F   4/ 6   2/ 8

$$

SKY/WX - Weather  TMP - Temperature  DP - Dew Point  RH - Relative Humidity
WIND - Wind Direction/Speed PRES - Barometric Pressure VSB - Visibility
WCI - Wind Chill Index E13G22 Wind - East Wind 13 mph/Gusts of 22 mph